Cando, ND

7:08 AM CST on November 18, 2017 (GMT -0600)
Cando

Weather History for K9D7 - October, 2013

Change the Weather History Date:

Thursday, October 10, 2013

  Actual Average (KDVL) Record (KDVL)
Temperature  
Mean Temperature 53 °F -  
Max Temperature 69 °F 55 °F 84 °F (1955)
Min Temperature 37 °F 35 °F 15 °F (1987)
Degree Days  
Heating Degree Days 12    
Growing Degree Days 3 (Base 50)    
Moisture  
Dew Point 42 °F    
Average Humidity 72    
Maximum Humidity 93    
Minimum Humidity 40    
Precipitation  
Precipitation 0.00 in - - ()
Sea Level Pressure  
Sea Level Pressure 29.83 in    
Wind  
Wind Speed 9 mph (ENE)    
Max Wind Speed 16 mph    
Max Gust Speed 23 mph    
Visibility 10 miles    
Events      
Averages and records for this station are not official NWS values.
T = Trace of Precipitation, MM = Missing Value Source: NWS Daily Summary

Daily Weather History Graph

Daily Weather History Graph

Search for Another Location

Airport or City:

Trip Planner

Search our weather history database for the weather conditions in past years. The results will help you decide how hot, cold, wet, or windy it might be!

Date:

Astronomy

Oct. 10, 2013 Rise Set
Actual Time 7:49 AM CDT 6:57 PM CDT
Civil Twilight 7:18 AM CDT 7:28 PM CDT
Nautical Twilight 6:42 AM CDT 8:04 PM CDT
Astronomical Twilight 6:05 AM CDT 8:40 PM CDT
Moon 2:01 PM CDT (10/10) 11:19 PM CDT (10/10)
Length of Visible Light 12h 09m
Length of Day
11h 07m
Waxing Crescent, 36% of the Moon is Illuminated
Oct 10
Waxing Crescent
Oct 11
First Quarter
Oct 18
Full
Oct 26
Last Quarter
Nov 3
New

Hourly Weather History & Observations

Time (CDT) Temp. Windchill Dew Point Humidity Pressure Visibility Wind Dir Wind Speed Gust Speed Precip Events Conditions
12:15 AM 42.8 °F 37.5 °F 37.4 °F 81% 30.00 in 10.0 mi NNE 9.2 mph - N/A   Clear
12:35 AM 42.8 °F 38.0 °F 37.4 °F 81% 30.00 in 10.0 mi NNE 8.1 mph - N/A   Clear
12:55 AM 42.8 °F 38.6 °F 37.4 °F 81% 30.00 in 10.0 mi NNE 6.9 mph - N/A   Clear
1:15 AM 41.0 °F 37.1 °F 37.4 °F 87% 29.99 in 10.0 mi NNE 5.8 mph - N/A   Clear
1:35 AM 39.2 °F 34.2 °F 37.4 °F 93% 29.99 in 10.0 mi NNE 6.9 mph - N/A   Partly Cloudy
1:55 AM 39.2 °F 34.2 °F 37.4 °F 93% 29.98 in 10.0 mi NNE 6.9 mph - N/A   Partly Cloudy
2:15 AM 39.2 °F 34.2 °F 35.6 °F 87% 29.98 in 10.0 mi NNE 6.9 mph - N/A   Clear
2:35 AM 39.2 °F 33.6 °F 35.6 °F 87% 29.97 in 10.0 mi NNE 8.1 mph - N/A   Clear
2:55 AM 39.2 °F 33.0 °F 35.6 °F 87% 29.97 in 10.0 mi North 9.2 mph - N/A   Clear
3:15 AM 39.2 °F 33.0 °F 37.4 °F 93% 29.97 in 10.0 mi NNE 9.2 mph - N/A   Clear
3:35 AM 39.2 °F 33.0 °F 37.4 °F 93% 29.96 in 10.0 mi NNE 9.2 mph - N/A   Clear
3:55 AM 39.2 °F 33.0 °F 37.4 °F 93% 29.96 in 10.0 mi NNE 9.2 mph - N/A   Scattered Clouds
4:15 AM 41.0 °F 35.2 °F 37.4 °F 87% 29.95 in 10.0 mi NNE 9.2 mph - N/A   Partly Cloudy
4:35 AM 39.2 °F 33.0 °F 37.4 °F 93% 29.95 in 10.0 mi NNE 9.2 mph - N/A   Partly Cloudy
4:55 AM 41.0 °F 35.2 °F 37.4 °F 87% 29.95 in 10.0 mi NNE 9.2 mph - N/A   Partly Cloudy
5:15 AM 39.2 °F 33.0 °F 37.4 °F 93% 29.94 in 10.0 mi NNE 9.2 mph - N/A   Clear
5:35 AM 39.2 °F 33.0 °F 35.6 °F 87% 29.94 in 10.0 mi NNE 9.2 mph - N/A   Clear
5:55 AM 39.2 °F 33.0 °F 37.4 °F 93% 29.93 in 10.0 mi NNE 9.2 mph - N/A   Clear
6:15 AM 41.0 °F 37.1 °F 37.4 °F 87% 29.93 in 10.0 mi NE 5.8 mph - N/A   Clear
6:35 AM 41.0 °F 37.1 °F 35.6 °F 81% 29.93 in 10.0 mi NNE 5.8 mph - N/A   Clear
6:55 AM 39.2 °F 34.2 °F 35.6 °F 87% 29.92 in 10.0 mi NE 6.9 mph - N/A   Clear
7:15 AM 41.0 °F 39.0 °F 35.6 °F 81% 29.92 in 10.0 mi NNE 3.5 mph - N/A   Clear
7:35 AM 37.4 °F 34.9 °F 33.8 °F 87% 29.92 in 10.0 mi North 3.5 mph - N/A   Clear
7:55 AM 37.4 °F 34.9 °F 33.8 °F 87% 29.91 in 10.0 mi North 3.5 mph - N/A   Clear
8:15 AM 37.4 °F 32.8 °F 33.8 °F 87% 29.91 in 10.0 mi North 5.8 mph - N/A   Clear
8:35 AM 37.4 °F 34.9 °F 35.6 °F 93% 29.90 in 10.0 mi NE 3.5 mph - N/A   Clear
8:55 AM 39.2 °F 35.0 °F 35.6 °F 87% 29.89 in 10.0 mi NE 5.8 mph - N/A   Clear
9:15 AM 42.8 °F 37.0 °F 37.4 °F 81% 29.87 in 10.0 mi NE 10.4 mph - N/A   Clear
9:35 AM 44.6 °F 39.2 °F 37.4 °F 76% 29.87 in 10.0 mi NNE 10.4 mph - N/A   Clear
9:55 AM 48.2 °F - 39.2 °F 71% 29.86 in 10.0 mi NNE 9.2 mph - N/A   Clear
10:15 AM 51.8 °F - 41.0 °F 67% 29.87 in 10.0 mi NE 6.9 mph - N/A   Clear
10:35 AM 55.4 °F - 41.0 °F 58% 29.86 in 9.0 mi ENE 8.1 mph - N/A   Clear
10:55 AM 59.0 °F - 41.0 °F 51% 29.85 in 10.0 mi NE 12.7 mph 16.1 mph N/A   Clear
11:15 AM 60.8 °F - 39.2 °F 45% 29.85 in 10.0 mi East 11.5 mph - N/A   Clear
11:35 AM 62.6 °F - 39.2 °F 42% 29.84 in 10.0 mi ENE 13.8 mph 17.3 mph N/A   Clear
11:55 AM 64.4 °F - 39.2 °F 40% 29.84 in 8.0 mi East 13.8 mph - N/A   Clear
12:15 PM 62.6 °F - 41.0 °F 45% 29.83 in 8.0 mi East 10.4 mph - N/A   Clear
12:35 PM 64.4 °F - 41.0 °F 42% 29.82 in 8.0 mi ENE 10.4 mph 17.3 mph N/A   Clear
12:55 PM 66.2 °F - 41.0 °F 40% 29.81 in 9.0 mi East 13.8 mph 17.3 mph N/A   Clear
1:15 PM 66.2 °F - 41.0 °F 40% 29.79 in 10.0 mi East 12.7 mph 17.3 mph N/A   Clear
1:35 PM 68.0 °F - 42.8 °F 40% 29.78 in 10.0 mi East 10.4 mph - N/A   Clear
1:55 PM 68.0 °F - 42.8 °F 40% 29.77 in 10.0 mi East 11.5 mph - N/A   Clear
2:15 PM 68.0 °F - 44.6 °F 43% 29.76 in 10.0 mi East 15.0 mph 18.4 mph N/A   Clear
2:35 PM 68.0 °F - 44.6 °F 43% 29.75 in 10.0 mi ENE 12.7 mph 21.9 mph N/A   Clear
2:55 PM 68.0 °F - 46.4 °F 46% 29.74 in 10.0 mi East 11.5 mph - N/A   Clear
3:15 PM 68.0 °F - 46.4 °F 46% 29.74 in 10.0 mi East 12.7 mph - N/A   Clear
3:35 PM 69.8 °F - 46.4 °F 43% 29.73 in 10.0 mi East 11.5 mph 23.0 mph N/A   Clear
3:55 PM 68.0 °F - 46.4 °F 46% 29.73 in 10.0 mi ESE 15.0 mph - N/A   Clear
4:15 PM 68.0 °F - 48.2 °F 49% 29.73 in 10.0 mi East 13.8 mph - N/A   Clear
4:35 PM 68.0 °F - 48.2 °F 49% 29.73 in 10.0 mi SSE 11.5 mph - N/A   Clear
4:55 PM 64.4 °F - 50.0 °F 59% 29.73 in 10.0 mi SSE 16.1 mph - N/A   Clear
5:15 PM 64.4 °F - 50.0 °F 59% 29.73 in 10.0 mi SSE 12.7 mph - N/A   Clear
5:35 PM 64.4 °F - 50.0 °F 59% 29.73 in 10.0 mi ESE 11.5 mph - N/A   Clear
5:55 PM 62.6 °F - 50.0 °F 63% 29.73 in 10.0 mi ESE 9.2 mph - N/A   Clear
6:15 PM 62.6 °F - 50.0 °F 63% 29.72 in 10.0 mi ESE 10.4 mph - N/A   Partly Cloudy
6:35 PM 60.8 °F - 50.0 °F 68% 29.73 in 10.0 mi ESE 5.8 mph - N/A   Clear
6:55 PM 59.0 °F - 50.0 °F 72% 29.72 in 10.0 mi ESE 8.1 mph - N/A   Clear
7:15 PM 59.0 °F - 50.0 °F 72% 29.72 in 10.0 mi ESE 9.2 mph - N/A   Clear
7:35 PM 59.0 °F - 50.0 °F 72% 29.72 in 10.0 mi East 6.9 mph - N/A   Clear
7:55 PM 57.2 °F - 50.0 °F 77% 29.72 in 10.0 mi East 6.9 mph - N/A   Clear
8:15 PM 57.2 °F - 50.0 °F 77% 29.71 in 10.0 mi East 6.9 mph - N/A   Clear
8:35 PM 57.2 °F - 50.0 °F 77% 29.70 in 10.0 mi East 8.1 mph - N/A   Clear
8:55 PM 57.2 °F - 50.0 °F 77% 29.70 in 10.0 mi ENE 8.1 mph - N/A   Clear
9:15 PM 57.2 °F - 50.0 °F 77% 29.69 in 10.0 mi ENE 6.9 mph - N/A   Clear
9:35 PM 55.4 °F - 50.0 °F 82% 29.69 in 10.0 mi East 5.8 mph - N/A   Clear
9:55 PM 55.4 °F - 50.0 °F 82% 29.68 in 10.0 mi East 8.1 mph - N/A   Clear
10:15 PM 55.4 °F - 50.0 °F 82% 29.69 in 10.0 mi East 8.1 mph - N/A   Clear
10:35 PM 55.4 °F - 50.0 °F 82% 29.68 in 10.0 mi East 8.1 mph - N/A   Clear
10:55 PM 55.4 °F - 50.0 °F 82% 29.69 in 10.0 mi East 5.8 mph - N/A   Partly Cloudy
11:15 PM 55.4 °F - 50.0 °F 82% 29.68 in 10.0 mi ENE 4.6 mph - N/A   Partly Cloudy
11:35 PM 55.4 °F - 50.0 °F 82% 29.69 in 10.0 mi ENE 3.5 mph - N/A   Clear
11:55 PM 53.6 °F - 50.0 °F 88% 29.68 in 10.0 mi NE 3.5 mph - N/A   Clear